COSMOS 1275 DEB, 12654

Orbit data source: Space-Track

COSMOS 1275 DEB, 12654 is space debris in LEO originally from a launch on Thu, 04 Jun 1981 UTC launched from the Plesetsk Missile And Space Complex (PKMTR). Debris objects in space refer to the collection of defunct objects orbiting the Earth. Examples of debris include non-operational satellites, rocket bodies, and fragments generated from explosions, collisions, or faulty payload assembly.

Loading next visibility...
Identifier
12654, 1981-053J
Orbit
LEO
Country
Flag of CISCIS
Related business
Manufacturer
Unknown
Mission
Spacecraft
Bus & Motor
Unknown
Mass
Unknown
Launch date (UTC)
1981-06-04 (45 years ago)
Launch vehicle
Unknown
Launch site
Plesetsk Missile And Space Complex (PKMTR)
Object type
Payload
Rocket body
Debris
Shape & HBR
Unknown shape, 0.2 m
Radar Cross Section
Medium (>0.1 m² and <1 m²)

Expand to show TLE details & history
Last TLE update: 14 hours ago

TLE from 14 hours ago
0 COSMOS 1275 DEB
1 12654U 81053J   26095.00412983  .00001426  00000-0  80756-3 0  9996
2 12654  82.9773 277.0380 0046259 111.9864  53.1509 14.08922419277794
Epoch: 2026-04-05T00:05Z
TLE epoch observation values (Epoch: 2026-04-05T00:05:56.817Z)
Latitude
14.29711°
Longitude
-99.55401°
Altitude
845.291 km
Speed
7.441 km/s
True Right ascension
06h 20m 59s
True Declination
14° 12' 58"
Sunlit
Object was in daylight at epoch
Visualization orbit readout
Latitude
Unknown
Longitude
Unknown
Altitude
Unknown
Speed
Unknown
Apparent Right ascension
Unknown
Apparent Declination
Unknown
Sunlit
N/A
Visualization observer readout
Local Sidereal Time
20:16:10
Azimuth
Unknown
Elevation
Unknown
Doppler factor
Unknown
Orbital elements
Apogee altitude
893.646 km
Perigee altitude
826.678 km
Semi-major axis
7,238.299 km
Eccentricity
0.00463
Inclination
82.9773°
RAAN
277.038°
Arg. of periapsis
111.9864°
True anomaly
53.57656°
Mean anomaly
53.1509°
Eccentric anomaly
53.36358°
Mean motion
3.52443 °/min
Orbital period
102.14 mins
BSTAR
0.00080756
Loading maneuver chart data...
Computing Atmospheric mass density...

Documentation

Showing up to 5 results
|